Location: Unspecified
(0.0000°N, 0.0000°E)
Time: 20:36:24
(UTC+00:00)

CZ-3C DEB - Pass Details

Date: 06 March 2026
Orbit: 440 x 28021 km, 21.3° (Epoch: 10 April)

Event Time Altitude Azimuth Distance (km) Brightness Sun altitude
Rises 20:47:29 0° 292° (WNW) 22,134 ? -38.8°
Reaches altitude 10° 21:59:08 10° 292° (WNW) 29,381 ? -56.5°
Drops below altitude 10° 22:54:04 10° 290° (WNW) 32,240 ? -69.9°
Enters shadow 02:43:38 - 267° (W) 14,405 ? -51.6°
Exits shadow 03:22:30 20° 179° (S) 2,953 ? -42.0°
Sets 03:26:54 0° 141° (SE) 3,370 ? -40.9°
